This demonstration page uses our WeatherBlox Daily Observations layout. Learn more.

Left ArrowRight Arrow

Hourly Observations for March 13, 2016

Temp ( °F °C ) Dew Point ( °F °C ) Humidity (%) Winds ( mph kmh ) Pressure ( in mb ) Visibility ( mi km ) Precip ( " mm )
12:15 am 00:15 Cloudy 54 12 50 10 88 88 S 15 24 29.77 1008 7 11 0.00 0.00
12:35 am 00:35 Cloudy 54 12 50 10 88 88 S 13 20 29.77 1008 6 10 0.00 0.00
12:55 am 00:55 Cloudy 54 12 52 11 94 94 S 12 19 29.77 1008 6 10 0.00 0.00
1:15 am 01:15 Cloudy 54 12 52 11 94 94 S 10 17 29.77 1008 7 11 0.00 0.00
1:35 am 01:35 Cloudy 54 12 52 11 94 94 S 12 19 29.77 1008 7 11 0.00 0.00
1:55 am 01:55 Cloudy 54 12 52 11 94 94 S 13 20 29.74 1007 7 11 0.00 0.00
3:15 am 03:15 Cloudy 54 12 50 10 88 88 S 12 19 29.74 1007 7 11 0.00 0.00
3:35 am 03:35 Cloudy 54 12 52 11 94 94 S 10 17 29.74 1007 5 8 0.00 0.00
3:55 am 03:55 Cloudy 54 12 52 11 94 94 S 8 13 29.74 1007 4 6 0.00 0.00
4:15 am 04:15 Cloudy 54 12 52 11 94 94 SSE 7 11 29.74 1007 4 6 0.00 0.00
4:35 am 04:35 Cloudy 54 12 52 11 94 94 SSE 7 11 29.74 1007 3 5 0.00 0.00
4:55 am 04:55 Cloudy 52 11 52 11 100 100 S 8 13 29.74 1007 4 6 0.00 0.00
5:15 am 05:15 Cloudy 54 12 52 11 94 94 S 9 15 29.74 1007 5 8 0.00 0.00
5:35 am 05:35 Cloudy 54 12 52 11 94 94 SSE 9 15 29.71 1006 4 6 0.00 0.00
5:55 am 05:55 Cloudy 54 12 52 11 94 94 SSE 12 19 29.71 1006 3 5 0.00 0.00
6:15 am 06:15 Cloudy 54 12 52 11 94 94 S 8 13 29.71 1006 3 5 0.00 0.00
6:35 am 06:35 Cloudy 54 12 52 11 94 94 S 8 13 29.71 1006 3 4 0.00 0.00
6:55 am 06:55 Cloudy 54 12 52 11 94 94 SSW 7 11 29.74 1007 3 4 0.00 0.00
7:15 am 07:15 Cloudy 54 12 52 11 94 94 SSW 7 11 29.74 1007 3 5 0.00 0.00
7:35 am 07:35 Cloudy 54 12 52 11 94 94 SSW 8 13 29.74 1007 4 6 0.00 0.00
7:55 am 07:55 Cloudy 54 12 52 11 94 94 SSW 7 11 29.74 1007 3 4 0.00 0.00
8:15 am 08:15 Cloudy 54 12 52 11 94 94 SW 8 13 29.74 1007 3 5 0.00 0.00
8:35 am 08:35 Cloudy 54 12 52 11 94 94 SW 8 13 29.74 1007 5 8 0.00 0.00
8:55 am 08:55 Cloudy 54 12 52 11 94 94 SSW 7 11 29.74 1007 4 6 0.00 0.00
9:15 am 09:15 Cloudy 54 12 52 11 94 94 SSW 7 11 29.74 1007 3 5 0.00 0.00
9:35 am 09:35 Cloudy 54 12 52 11 94 94 SSW 7 11 29.74 1007 3 5 0.00 0.00
9:55 am 09:55 Cloudy 54 12 52 11 94 94 SSW 9 15 29.74 1007 4 6 0.00 0.00
10:15 am 10:15 Cloudy 55 13 52 11 88 88 SSW 13 20 29.68 1005 4 6 0.00 0.00
10:35 am 10:35 Cloudy 55 13 52 11 88 88 SSW 12 19 29.68 1005 5 8 0.00 0.00
10:55 am 10:55 Mostly Cloudy 55 13 52 11 88 88 SSW 13 20 29.68 1005 8 13 0.00 0.00
11:15 am 11:15 Mostly Cloudy 55 13 52 11 88 88 SW 10 17 29.68 1005 10 16 0.00 0.00
11:35 am 11:35 Cloudy 57 14 52 11 82 82 SW 10 17 29.68 1005 10 16 0.00 0.00
11:55 am 11:55 Cloudy 57 14 52 11 82 82 SSW 10 17 29.68 1005 10 16 0.00 0.00
12:15 pm 12:15 Mostly Cloudy 59 15 52 11 77 77 SSW 10 17 29.68 1005 10 16 0.00 0.00
12:35 pm 12:35 Mostly Cloudy 61 16 52 11 72 72 S 9 15 29.68 1005 10 16 0.00 0.00
12:55 pm 12:55 Partly Cloudy 61 16 52 11 72 72 S 9 15 29.68 1005 10 16 0.00 0.00
1:15 pm 13:15 Partly Cloudy 63 17 52 11 68 68 SSE 8 13 29.62 1003 10 16 0.00 0.00
1:35 pm 13:35 Mostly Cloudy 63 17 52 11 68 68 S 7 11 29.62 1003 10 16 0.00 0.00
1:55 pm 13:55 Cloudy 64 18 52 11 64 64 S 9 15 29.62 1003 10 16 0.00 0.00
2:15 pm 14:15 Cloudy 63 17 50 10 64 64 SSW 10 17 29.62 1003 10 16 0.00 0.00
2:35 pm 14:35 Mostly Cloudy 66 19 48 9 52 52 SSW 8 13 29.62 1003 10 16 0.00 0.00
2:55 pm 14:55 Mostly Cloudy 66 19 48 9 52 52 SSE 12 19 29.59 1002 10 16 0.00 0.00
3:15 pm 15:15 Mostly Cloudy 66 19 48 9 52 52 SSW 5 7 29.59 1002 10 16 0.00 0.00
3:35 pm 15:35 Partly Cloudy 68 20 48 9 49 49 S 8 13 29.56 1001 10 16 0.00 0.00
3:55 pm 15:55 Mostly Cloudy 70 21 48 9 46 46 SSW 13 20 29.56 1001 10 16 0.00 0.00
4:15 pm 16:15 Partly Cloudy 68 20 46 8 46 46 WSW 7 11 29.56 1001 10 16 0.00 0.00
4:35 pm 16:35 Partly Cloudy 68 20 46 8 46 46 SW 7 11 29.53 1000 10 16 0.00 0.00
4:55 pm 16:55 Mostly Sunny 70 21 46 8 43 43 SW 8 13 29.53 1000 10 16 0.00 0.00
5:15 pm 17:15 Mostly Cloudy 70 21 45 7 40 40 WSW 14 22 29.53 1000 10 16 0.00 0.00
5:35 pm 17:35 Mostly Cloudy 70 21 45 7 40 40 SW 9 15 29.53 1000 10 16 0.00 0.00
5:55 pm 17:55 Mostly Sunny 70 21 45 7 40 40 W 9 15 29.53 1000 10 16 0.00 0.00
6:15 pm 18:15 Sunny 70 21 45 7 40 40 W 5 7 29.53 1000 10 16 0.00 0.00
6:35 pm 18:35 Mostly Sunny 70 21 45 7 40 40 WSW 9 15 29.53 1000 10 16 0.00 0.00
6:55 pm 18:55 Mostly Sunny 70 21 45 7 40 40 WSW 7 11 29.53 1000 10 16 0.00 0.00
7:15 pm 19:15 Sunny 68 20 45 7 43 43 W 5 7 29.53 1000 10 16 0.00 0.00
7:35 pm 19:35 Sunny 64 18 45 7 49 49 Calm 29.59 1002 10 16 0.00 0.00
7:55 pm 19:55 Clear 63 17 45 7 52 52 S 5 7 29.59 1002 10 16 0.00 0.00
8:15 pm 20:15 Clear 61 16 45 7 55 55 S 5 7 29.59 1002 10 16 0.00 0.00
8:35 pm 20:35 Clear 57 14 43 6 59 59 S 5 7 29.62 1003 10 16 0.00 0.00
8:55 pm 20:55 Clear 55 13 45 7 67 67 SSW 5 7 29.62 1003 10 16 0.00 0.00
9:15 pm 21:15 Clear 54 12 43 6 67 67 S 5 7 29.68 1005 10 16 0.00 0.00
9:35 pm 21:35 Clear 54 12 43 6 67 67 S 3 6 29.68 1005 10 16 0.00 0.00
9:55 pm 21:55 Clear 52 11 43 6 72 72 S 5 7 29.68 1005 10 16 0.00 0.00
10:15 pm 22:15 Clear 54 12 43 6 67 67 SSW 3 6 29.68 1005 10 16 0.00 0.00
10:35 pm 22:35 Clear 54 12 45 7 72 72 SW 7 11 29.68 1005 10 16 0.00 0.00
10:55 pm 22:55 Clear 55 13 45 7 67 67 WSW 6 9 29.65 1004 10 16 0.00 0.00
11:15 pm 23:15 Clear 57 14 45 7 63 63 SSW 8 13 29.65 1004 10 16 0.00 0.00
11:35 pm 23:35 Clear 52 11 43 6 72 72 S 6 9 29.68 1005 10 16 0.00 0.00
11:55 pm 23:55 Clear 52 11 43 6 72 72 SW 6 9 29.68 1005 10 16 0.00 0.00

Powered by AerisWeather